Regional Weather Roundup
Issued by NWS

Home | Current Version | Previous Version | Text Only | Print | Product List | Glossary Off
Versions: 1 2 3 4 5 6 7 8 9 10 11 12 13 14 15 16 17 18 19 20 21 22 23 24 25 26 27 28 29 30 31 32 33 34 35 36 37 38 39 40 41 42 43 44 45 46 47 48 49 50

000
ASUS43 KLOT 180202
RWRIL

ILLINOIS REGIONAL WEATHER ROUNDUP
NATIONAL WEATHER SERVICE CHICAGO/ROMEOVILLE IL
800 PM CST TUE JAN 17 2017

NOTE: "FAIR" INDICATES FEW OR NO CLOUDS BELOW 12,000 FEET WITH NO
SIGNIFICANT WEATHER AND/OR OBSTRUCTIONS TO VISIBILITY.

* THESE STATIONS ARE NOT UNDER NWS QUALITY CONTROL. THEY ALSO MAY NOT
  REPORT WEATHER SUCH AS PRECIPITATION OR FOG.

ILZ001-002-007-009-015-016-024-180300-
NORTHWEST ILLINOIS

CITY           SKY/WX    TMP DP  RH WIND       PRES   REMARKS
MOLINE         CLOUDY    35  32  88 W15       30.05R FOG     WCI  25
STERLING*      CLOUDY    34  33  96 W14       30.03R FOG     WCI  25
SAVANNA*       CLOUDY    34  32  92 W7        30.03R WCI  28
$$

ILZ003-004-008-010-011-017-018-180300-
NORTH CENTRAL ILLINOIS

CITY           SKY/WX    TMP DP  RH WIND       PRES   REMARKS
ROCKFORD       DRIZZLE   35  33  92 W8        30.01R FOG     WCI  29
FREEPORT*      CLOUDY    33  33  99 W9        30.01R FOG     WCI  25
ROCHELLE*      CLOUDY    33  33  99 W10G16    30.01S FOG     WCI  25
DE KALB*       CLOUDY    34  33  98 W12       29.99S FOG     WCI  25
$$

ILZ005-006-012>014-019>023-180300-
NORTHEAST ILLINOIS

CITY           SKY/WX    TMP DP  RH WIND       PRES   REMARKS
CHICAGO-OHARE  DRIZZLE   35  34  96 W10       29.97R FOG     WCI  27
CHICAGO-MIDWAY CLOUDY    34  33  96 W13       29.99R FOG     WCI  25
AURORA         CLOUDY    35  33  92 W13       29.99S FOG     WCI  26
LANSING*       CLOUDY    35  35 100 W12       30.00S WCI  27
JOLIET*        CLOUDY    36  36  99 W7        30.02R FOG     WCI  30
WAUKEGAN       CLOUDY    34  33  96 W5        29.95S FOG     WCI  30
DUPAGE AIRPORT CLOUDY    35  32  88 W13       29.97S FOG     WCI  26
KANKAKEE*      CLOUDY    35  35  97 W14       30.04R WCI  26
WHEELING       CLOUDY    35  33  92 W8        29.98S WCI  29
MORRIS*        CLOUDY    35  34  97 W10       30.01S FOG     WCI  27
ROMEOVILLE*    CLOUDY    34  34 100 W10       30.00S FOG     WCI  26
NORTHERLY ISL    N/A     36  34  92 W6          N/A  WCI  31
$$

LMZ740>746-180300-
SOUTHERN LAKE MICHIGAN

STATION/POSITION SKY/WX   TEMP    WIND        PRES    VSBY  WAVE
                          AIR SEA DIR/SP/G                  HT/PER
                          (F)     (DEG/KT/KT) (MB)    (MI)  (FT/S)
HARRISON CRIB              37     270/ 14/ 15   N/A
BURNHAM HARBOR             36     260/  7/ 13   N/A
CALUMET HARBOR             36     240/  4/ 12 1014.9R
BURNS HARBOR               36     250/ 15/ 18 1015.6
$$

ILZ025>027-034>036-040-047-049-050-058-095>099-180300-
WEST-CENTRAL ILLINOIS

CITY           SKY/WX    TMP DP  RH WIND       PRES   REMARKS
QUINCY         CLOUDY    37  35  92 W7        30.12S FOG     WCI  32
GALESBURG*     CLOUDY    35  34  99 W14       30.07S FOG     WCI  25
MACOMB*        CLOUDY    36  35  99 W13       30.11S WCI  27
JACKSONVILLE*  CLOUDY    38  34  87 W8        30.13R WCI  32
PITTSFIELD*    CLOUDY    38  36  91 W8G18     30.14R WCI  33
$$

ILZ028>032-037-038-041>044-048-051>054-059>061-180300-
CENTRAL ILLINOIS

CITY           SKY/WX    TMP DP  RH WIND       PRES   REMARKS
BLOOMINGTON    CLOUDY    35  33  92 W9        30.07R FOG     WCI  28
DECATUR        CLOUDY    37  36  96 W13       30.10S WCI  29
PEORIA         CLOUDY    36  34  92 W8        30.08R WCI  30
LACON*         CLOUDY    35  34  98 W10       30.05S FOG     WCI  27
LINCOLN*       CLOUDY    37  37  99 W6        30.10S FOG     WCI  32
SPRINGFIELD    CLOUDY    39  36  89 W14       30.12S WCI  31
TAYLORVILLE    CLOUDY    38  37  96 W9G16     30.12R WCI  31
$$

ILZ033-039-045-046-055>057-062-063-180300-
EAST-CENTRAL ILLINOIS

CITY           SKY/WX    TMP DP  RH WIND       PRES   REMARKS
CHAMPAIGN      CLOUDY    37  34  89 W17       30.08S FOG     WCI  27
RANTOUL*       CLOUDY    37  36  94 W16       30.07S WCI  28
MATTOON        CLOUDY    39  31  72 W15       30.09R WCI  31
PARIS*         CLOUDY    38  38  97 W13G21    30.09R WCI  31
$$

ILZ079-100>102-180300-
SOUTHWEST ILLINOIS

CITY           SKY/WX    TMP DP  RH WIND       PRES   REMARKS
BELLEVILLE     CLOUDY    42  40  93 W8        30.15R
CAHOKIA*       CLOUDY    42  35  76 W7        30.16R
SPARTA*        CLOUDY    42  36  80 W9        30.16S
$$

ILZ064>066-069>071-074>076-080>082-084>086-088>090-092>094-180300-
SOUTH-CENTRAL ILLINOIS

CITY           SKY/WX    TMP DP  RH WIND       PRES   REMARKS
CARBONDALE     CLOUDY    44  41  89 NW6       30.16R
CAIRO*         CLOUDY    44  40  85 SW6       30.17R
EFFINGHAM*     CLOUDY    40  40  99 W14       30.13R
MARION         CLOUDY    45  43  93 SW5       30.16R
MT. VERNON     CLOUDY    44  39  82 VRB7      30.14R
CENTRALIA*     CLOUDY    43  39  87 W10       30.13S
SALEM*         CLOUDY    43  38  82 W10G16    30.13S
METROPOLIS*    CLOUDY    45  40  83 CALM      30.17S
$$

ILZ067-068-072-073-078-083-087-091-180300-
SOUTHEAST ILLINOIS

CITY           SKY/WX    TMP DP  RH WIND       PRES   REMARKS
LAWRENCEVILLE  LGT RAIN  43  42  97 W12       30.11R FOG
FLORA*         CLOUDY    44  38  81 W15       30.13R
FAIRFIELD*     CLOUDY    43  41  93 SW5       30.12S
HARRISBURG*    CLOUDY    44  40  88 W6        30.16R
ROBINSON*      CLOUDY    42  40  91 W10       30.12R
CARMI*         CLOUDY    44  40  88 W9        30.14R
$$

ABBREVIATIONS USED IN REMARKS
   TC - TEMPERATURE IN CELSIUS
  WCI - WIND CHILL INDEX
   HX - HEAT INDEX
  VSB - VISIBILITY
$$





USA.gov is the U.S. government's official web portal to all federal, state and local government web resources and services.